Location: Unspecified
(0.0000°N, 0.0000°E)
Time: 00:30:41
(UTC+00:00)

STARLINK-1053 - Pass Details

Date: 17 January 2020
Orbit: 546 x 548 km, 53.1° (Epoch: 15 January)

Event Time Altitude Azimuth Distance (km) Brightness Sun altitude
Rises 05:36:36 0° 183° (S) 2,708 7.4 -7.8°
Reaches altitude 10° 05:39:49 10° 156° (SSE) 1,811 7.0 -7.0°
Maximum altitude 05:41:56 14° 125° (SE) 1,584 7.4 -6.5°
Drops below altitude 10° 05:44:03 10° 94° (E) 1,807 7.7 -6.0°
Sets 05:47:14 0° 67° (ENE) 2,695 7.9 -5.3°
